This is the latest recevied weather packets stored in our database for station/object WB0OCV. If no packets are shown the sender has not sent any weather packets the latest 10 day(s).
| Time | Temp. | Humidity | Pressure | Rain* | Wind** | Luminosity | Snow |
|---|---|---|---|---|---|---|---|
| 1777846293 | 11.67° C | 43% | 1009.2 hPa | 0 mm | - | 80 W/m² | - |
| 1777845990 | 11.67° C | 47% | 1009.2 hPa | 0 mm | - | 62 W/m² | - |
| 1777845686 | 11.67° C | 43% | 1008.9 hPa | 0 mm | - | 66 W/m² | - |
| 1777845384 | 12.22° C | 45% | 1008.9 hPa | 0 mm | - | 70 W/m² | - |
| 1777845080 | 12.22° C | 45% | 1008.8 hPa | 0 mm | - | 83 W/m² | - |
| 1777844779 | 12.22° C | 46% | 1008.8 hPa | 0 mm | - | 103 W/m² | - |
| 1777844475 | 12.22° C | 46% | 1008.8 hPa | 0 mm | - | 111 W/m² | - |
| 1777844174 | 12.22° C | 46% | 1008.9 hPa | 0 mm | - | 140 W/m² | - |
| 1777843870 | 11.67° C | 47% | 1008.8 hPa | 0 mm | - | 144 W/m² | - |
| 1777843568 | 11.67° C | 47% | 1008.6 hPa | 0 mm | - | 99 W/m² | - |
| 1777843265 | 11.67° C | 46% | 1008.5 hPa | 0 mm | - | 87 W/m² | - |
| 1777842962 | 11.67° C | 46% | 1008.5 hPa | 0 mm | - | 119 W/m² | - |
| 1777842657 | 11.67° C | 46% | 1008.5 hPa | 0 mm | - | 77 W/m² | - |
| 1777842354 | 12.22° C | 45% | 1008.4 hPa | 0 mm | - | 70 W/m² | - |
| 1777842050 | 12.22° C | 48% | 1008.4 hPa | 0 mm | - | 112 W/m² | - |
| 1777841747 | 12.22° C | 47% | 1008.3 hPa | 0 mm | - | 192 W/m² | - |
| 1777841443 | 11.67° C | 47% | 1008.4 hPa | 0 mm | - | 178 W/m² | - |
| 1777841140 | 11.67° C | 50% | 1008.3 hPa | 0 mm | - | 152 W/m² | - |
| 1777840838 | 11.67° C | 49% | 1008.3 hPa | 0 mm | - | 128 W/m² | - |
| 1777840535 | 11.67° C | 52% | 1008.2 hPa | 0 mm | - | 94 W/m² | - |
| 1777840232 | 11.67° C | 50% | 1008.2 hPa | 0 mm | - | 59 W/m² | - |
| 1777839930 | 11.67° C | 49% | 1008 hPa | 0 mm | - | 63 W/m² | - |
| 1777839627 | 11.67° C | 50% | 1007.8 hPa | 0 mm | - | 64 W/m² | - |
| 1777839325 | 11.67° C | 51% | 1008 hPa | 0 mm | - | 101 W/m² | - |
| 1777839022 | 12.22° C | 47% | 1007.9 hPa | 0 mm | - | 110 W/m² | - |
* Rain latest hour (hover to see other rain measurements)
** Current wind speed in m/s (hover to see current wind gust speed)